"Pseudo-MPEC" for TTT0013

Created 2025 Feb 25 22:31:25 UT using Find_Orb

Click here for an explanation of pseudo-MPECs

 
 Astrometry: 
     TTT0013 KB2025 01 26.87047 01 09 06.09 +08 15 03.8    ~1VIHx22.5 VZNEOCPY66
     TTT0013 KB2025 01 26.87297 01 09 06.07 +08 15 07.1    ~1VIH 21.6 VZNEOCPY66
     TTT0013 KB2025 01 26.87600 01 09 06.01 +08 15 11.2    ~1VIH 21.5 VZNEOCPY66
     TTT0013*KB2025 01 27.85378 01 08 56.73 +08 31 28.3    ~1VFVx22.7 VZNEOCPY66
     TTT0013 KB2025 01 27.85536 01 08 56.73 +08 31 30.3    ~1VFV 20.8 VZNEOCPY66
     TTT0013 KB2025 01 27.85699 01 08 56.71 +08 31 32.8    ~1VFV 21.0 VZNEOCPY66
     TTT0013 KB2025 01 27.85847 01 08 56.69 +08 31 34.5    ~1VFV       ZNEOCPY66
     TTT0013 KB2025 01 27.85970 01 08 56.65 +08 31 36.0    ~1VFV       ZNEOCPY66
     TTT0013 KB2025 01 27.86074 01 08 56.63 +08 31 37.3    ~1VFV       ZNEOCPY66
     TTT0013 KB2025 01 27.86156 01 08 56.57 +08 31 37.8    ~1VFV       ZNEOCPY66
     TTT0013 KB2025 01 27.86239 01 08 56.57 +08 31 39.1    ~1VFV       ZNEOCPY66

Station data:
(Y66) Two-Meter Twin Telescope, TTT2, Teide  (N28.298728 W16.509470)  Canary
   Islands (Spain).

Orbital elements:  TTT0013
   Perihelion 2025 Feb 2.49858 TT = 11:57:57 (JD 2460708.99858)
Epoch 2025 Jan 27.0 TT = JDT 2460702.5   Earth MOID: 0.0051   Ju: 0.0345
q   0.93636338                      Ma: 0.0298   Sa: 0.0663   Ur: 0.1491
H   21.45 G 0.15   Peri.   15.64289                              AutoNEOCP
z  -0.0000615379   Node   109.93967
e   1.0000576      Incl.    1.80824                       (J2000 ecliptic)
9 of 11 observations 2025 Jan. 26-27 (23.7 hr); mean residual 0".41
Residuals in arcseconds: 
250126 Y66( .43-  1.6-)   250127 Y66  .25-  1.1-    250127 Y66  .22+  .46+    
250126 Y66  .00   .62-    250127 Y66  .05+  .26-    250127 Y66  .38-  .14+    
250126 Y66  .01-  .63+    250127 Y66  .29+  .05-    250127 Y66  .08-  .60+    
250127 Y66( .83-  1.5-)   250127 Y66  .14+  .21+    

Ephemerides (geocentric):
Date (UTC) HH   RA             Dec           delta  r     elong  mag
---- --------  ------------   ------------  ------ ------ -----  ---
2025 02 25 23  14 22 46.470   +12 33 26.93  .05779 1.0237 124.2 17.3
2025 02 26 00  14 22 27.118   +12 27 31.16  .05811 1.0240 124.3 17.3
2025 02 26 01  14 22 07.983   +12 21 39.22  .05844 1.0243 124.4 17.3
2025 02 26 02  14 21 49.061   +12 15 51.08  .05876 1.0246 124.5 17.3
2025 02 26 03  14 21 30.349   +12 10 06.67  .05908 1.0249 124.7 17.3
2025 02 26 04  14 21 11.843   +12 04 25.94  .05940 1.0252 124.8 17.3
2025 02 26 05  14 20 53.539   +11 58 48.82  .05973 1.0255 124.9 17.3
2025 02 26 06  14 20 35.434   +11 53 15.28  .06005 1.0258 125.0 17.3
2025 02 26 07  14 20 17.525   +11 47 45.25  .06037 1.0261 125.1 17.3
2025 02 26 08  14 19 59.808   +11 42 18.68  .06070 1.0264 125.2 17.3
2025 02 26 09  14 19 42.280   +11 36 55.53  .06102 1.0267 125.3 17.4
2025 02 26 10  14 19 24.938   +11 31 35.74  .06135 1.0270 125.4 17.4
2025 02 26 11  14 19 07.778   +11 26 19.26  .06167 1.0273 125.5 17.4
2025 02 26 12  14 18 50.798   +11 21 06.05  .06200 1.0276 125.6 17.4
2025 02 26 13  14 18 33.995   +11 15 56.05  .06232 1.0279 125.7 17.4
2025 02 26 14  14 18 17.366   +11 10 49.23  .06265 1.0282 125.8 17.4
2025 02 26 15  14 18 00.907   +11 05 45.54  .06297 1.0285 125.9 17.4
2025 02 26 16  14 17 44.617   +11 00 44.92  .06330 1.0288 126.0 17.4
2025 02 26 17  14 17 28.492   +10 55 47.34  .06363 1.0291 126.1 17.4
2025 02 26 18  14 17 12.529   +10 50 52.76  .06395 1.0294 126.2 17.4
2025 02 26 19  14 16 56.727   +10 46 01.13  .06428 1.0297 126.3 17.4
2025 02 26 20  14 16 41.082   +10 41 12.41  .06461 1.0300 126.4 17.5
2025 02 26 21  14 16 25.593   +10 36 26.55  .06493 1.0303 126.5 17.5
2025 02 26 22  14 16 10.255   +10 31 43.53  .06526 1.0306 126.6 17.5
2025 02 26 23  14 15 55.068   +10 27 03.29  .06559 1.0309 126.7 17.5
2025 02 27 00  14 15 40.029   +10 22 25.81  .06592 1.0312 126.8 17.5
2025 02 27 01  14 15 25.135   +10 17 51.04  .06624 1.0315 126.9 17.5
2025 02 27 02  14 15 10.385   +10 13 18.94  .06657 1.0318 127.0 17.5
2025 02 27 03  14 14 55.775   +10 08 49.48  .06690 1.0321 127.1 17.5
2025 02 27 04  14 14 41.304   +10 04 22.63  .06723 1.0324 127.1 17.5
2025 02 27 05  14 14 26.970   +09 59 58.34  .06756 1.0327 127.2 17.5
2025 02 27 06  14 14 12.770   +09 55 36.58  .06789 1.0330 127.3 17.5
2025 02 27 07  14 13 58.703   +09 51 17.32  .06821 1.0333 127.4 17.5
2025 02 27 08  14 13 44.766   +09 47 00.52  .06854 1.0336 127.5 17.6
2025 02 27 09  14 13 30.958   +09 42 46.15  .06887 1.0339 127.6 17.6
2025 02 27 10  14 13 17.276   +09 38 34.18  .06920 1.0342 127.7 17.6
2025 02 27 11  14 13 03.719   +09 34 24.57  .06953 1.0345 127.8 17.6
2025 02 27 12  14 12 50.285   +09 30 17.30  .06986 1.0348 127.9 17.6
2025 02 27 13  14 12 36.972   +09 26 12.33  .07019 1.0351 128.0 17.6
2025 02 27 14  14 12 23.778   +09 22 09.64  .07052 1.0354 128.0 17.6
2025 02 27 15  14 12 10.702   +09 18 09.18  .07085 1.0358 128.1 17.6
2025 02 27 16  14 11 57.741   +09 14 10.94  .07118 1.0361 128.2 17.6
2025 02 27 17  14 11 44.894   +09 10 14.88  .07151 1.0364 128.3 17.6
2025 02 27 18  14 11 32.160   +09 06 20.98  .07185 1.0367 128.4 17.6
2025 02 27 19  14 11 19.537   +09 02 29.21  .07218 1.0370 128.5 17.6
2025 02 27 20  14 11 07.022   +08 58 39.54  .07251 1.0373 128.6 17.6
2025 02 27 21  14 10 54.616   +08 54 51.94  .07284 1.0376 128.6 17.7
2025 02 27 22  14 10 42.315   +08 51 06.38  .07317 1.0379 128.7 17.7